Wind_Speed
24 24 24 24 24 23 24 25 27 27 27 25 25 26 26 26 26 25 26 25 24 23 23 24 24 23 23 24 24 24 24 25 26 26 27 28 28 29 30 30 31 32 33 32
24 24 24 24 24 24 24 25 27 28 27 25 25 25 25 25 25 25 25 25 24 22 22 23 23 23 24 23 23 24 24 24 25 25 27 28 28 28 30 30 31 32 32 31
24 23 24 23 23 24 24 25 26 26 25 25 24 25 24 24 24 24 25 25 24 23 23 23 24 24 24 24 24 24 25 25 26 26 27 28 28 29 30 31 31 32 31 31
24 23 23 22 23 23 24 23 24 24 24 24 24 24 24 24 24 24 25 25 25 24 23 24 25 25 25 25 24 24 25 25 26 26 27 27 27 28 29 30 30 30 29 30
24 23 23 22 22 23 24 24 23 24 24 23 23 23 23 23 24 25 26 26 25 24 24 24 24 23 24 24 24 23 24 25 25 26 27 27 27 28 28 28 28 29 30 29
24 24 23 22 22 23 24 24 23 23 23 23 23 22 22 23 24 25 25 25 24 23 24 24 24 24 24 24 23 23 24 24 25 25 27 27 27 27 27 27 28 29 28 27
25 25 24 22 22 23 24 24 23 23 23 23 23 22 22 23 24 25 24 24 23 23 23 24 24 24 24 23 22 22 23 23 24 25 27 27 27 27 27 27 28 27 26 25
24 25 23 22 23 23 23 24 24 24 23 24 23 23 23 23 23 24 24 23 23 23 23 23 24 24 23 23 22 22 23 24 24 25 27 26 27 26 26 25 25 24 23 23
24 23 23 23 24 24 24 23 24 24 24 24 24 24 24 24 23 23 22 22 22 23 23 23 24 24 23 23 23 23 23 24 25 26 25 25 24 25 24 24 23 22 22 21
24 23 23 24 24 24 24 24 24 24 24 24 24 23 24 25 25 24 22 22 22 22 23 23 24 23 23 22 22 22 23 23 24 24 24 23 23 23 23 23 22 21 20 20
23 23 24 24 24 24 24 24 24 25 25 24 24 24 24 24 24 24 24 23 22 22 22 23 22 22 23 22 22 22 22 22 22 23 23 23 23 23 22 21 21 21 21 21
23 23 24 24 24 24 24 24 24 25 25 25 25 24 25 25 24 24 24 24 23 23 23 23 23 23 23 23 23 23 22 22 22 22 22 23 22 21 21 21 21 21 22 22
23 23 24 24 23 23 24 24 24 25 25 25 25 24 25 25 25 24 24 23 23 23 23 24 24 23 23 22 23 24 22 21 21 21 21 21 21 20 21 21 21 21 22 22
24 24 24 24 23 23 24 24 25 25 25 25 24 24 25 25 25 25 24 23 23 23 23 23 23 23 23 23 23 23 23 22 22 21 21 20 21 21 21 21 21 22 22 22
25 26 25 25 24 24 24 25 25 25 25 24 24 24 24 24 24 24 24 24 23 23 23 23 23 23 23 23 24 23 23 23 23 22 22 21 21 21 22 22 22 22 22 22
26 26 25 24 24 24 24 24 24 24 24 23 23 22 22 23 23 23 23 23 23 23 23 23 22 22 22 23 23 23 23 22 22 22 22 21 21 21 21 21 21 21 21 21
25 25 25 24 24 24 24 24 24 23 23 23 22 22 22 23 23 24 24 24 24 23 23 23 22 22 21 22 21 21 21 21 20 20 21 20 20 19 19 20 20 20 20 21
26 25 25 25 24 24 24 24 24 23 23 23 23 23 23 23 24 25 25 24 24 24 24 23 23 23 22 22 22 21 20 20 20 20 20 19 19 19 19 19 20 20 20 20
25 25 25 25 24 24 24 24 24 24 24 24 24 24 23 23 24 25 26 26 26 25 24 24 23 22 22 22 22 21 20 20 20 20 20 20 20 20 20 20 20 20 20 20
25 25 25 25 25 24 24 24 24 24 24 24 24 23 23 24 25 26 27 27 27 26 25 24 23 23 23 23 22 22 21 21 21 21 21 20 20 20 20 20 20 20 20 21
24 24 25 25 25 25 25 24 24 24 24 24 24 24 24 25 26 27 27 27 27 27 26 25 24 24 24 23 22 22 22 22 22 22 22 21 22 21 21 21 21 21 21 21
25 25 25 25 26 25 25 25 25 24 24 24 25 25 26 27 27 28 28 28 27 26 26 25 25 25 24 24 23 23 23 23 22 22 22 22 22 22 22 22 22 22 22 22
26 26 26 26 26 25 25 25 25 25 25 26 27 27 27 28 28 28 28 27 26 26 25 25 25 25 25 24 24 24 23 23 22 22 22 22 22 22 22 22 22 22 22 22
26 27 26 26 26 26 26 26 26 26 26 27 27 28 28 28 27 27 27 26 25 24 24 24 24 24 24 24 24 24 23 22 22 22 23 23 23 23 23 23 23 22 22 22
27 27 27 26 26 26 26 26 26 26 27 27 27 28 28 27 27 26 26 25 24 24 23 23 23 23 23 23 23 23 23 23 23 23 23 23 23 23 23 23 23 23 23 22
28 27 27 27 27 27 27 27 27 27 28 27 27 27 26 26 26 26 25 24 23 23 22 22 22 23 23 23 23 23 23 23 23 23 23 23 23 23 22 22 22 22 22 22
29 29 29 28 28 28 28 28 28 28 28 27 27 26 26 26 26 26 25 24 23 22 22 22 22 23 23 23 23 23 23 23 23 22 23 22 22 22 21 22 22 22 22 22
Wind_Direction
282 283 283 282 281 283 283 284 284 286 289 292 293 294 293 292 293 293 292 293 292 290 287 287 287 286 286 286 285 284 283 283 283 281 278 276 274 274 275 276 277 276 276 275
282 283 282 282 281 283 286 287 287 287 289 292 293 293 292 292 291 292 293 294 293 290 286 287 289 288 286 286 287 286 285 285 283 281 280 278 275 276 276 276 278 278 277 276
283 283 283 283 285 286 289 290 290 290 291 291 292 293 293 292 291 293 294 294 293 291 288 288 288 287 286 287 288 286 284 283 281 279 279 278 276 278 278 278 279 279 277 276
284 284 285 289 288 288 289 292 291 290 292 293 293 293 293 293 293 293 295 294 291 289 288 288 287 287 287 287 288 286 283 282 280 277 277 277 278 280 279 278 278 279 278 276
286 286 287 287 291 292 293 293 295 293 293 294 295 293 292 293 293 293 294 294 291 287 284 284 286 288 288 289 290 287 285 284 281 278 277 276 279 280 280 280 280 281 279 278
285 286 289 291 292 293 294 295 296 297 295 296 296 293 294 292 293 293 293 292 292 288 285 285 287 288 289 290 291 289 286 284 282 280 278 278 279 280 281 283 283 283 281 280
286 287 288 292 293 295 295 296 296 296 294 294 295 295 296 294 293 295 295 293 290 288 287 287 289 291 292 292 291 290 287 286 284 283 281 280 279 281 282 284 285 285 281 278
286 288 292 293 293 293 293 293 294 294 292 292 292 293 295 296 296 294 293 291 290 289 288 290 291 292 293 294 293 292 290 288 286 285 285 283 284 285 285 286 286 284 281 277
285 289 291 291 290 290 291 292 292 292 293 293 294 293 294 295 295 294 293 291 289 288 288 289 292 294 294 295 295 295 295 292 290 288 287 287 288 287 284 284 285 285 284 280
285 288 289 289 289 288 289 290 290 290 292 293 294 295 296 295 294 293 292 291 290 288 287 288 291 295 298 296 296 296 297 296 294 291 289 289 290 290 287 283 283 283 284 282
285 285 285 287 287 287 289 289 289 290 292 292 293 294 296 298 296 294 292 291 291 291 289 290 291 294 295 295 296 296 295 295 295 291 288 289 290 289 286 285 284 284 284 283
287 286 285 286 288 288 289 291 292 292 292 290 291 293 295 296 297 296 294 292 292 290 289 292 295 295 294 293 295 294 294 295 294 290 288 287 287 285 284 284 283 283 283 282
286 287 287 288 289 290 290 291 293 294 293 291 290 291 292 293 294 296 296 294 292 291 291 293 294 294 293 291 292 294 293 291 291 291 289 286 284 284 283 283 282 283 283 281
284 284 287 290 291 291 290 291 293 295 294 291 289 289 291 292 293 294 295 295 293 292 293 293 294 293 292 292 292 292 291 287 286 288 288 287 284 283 284 284 283 284 284 282
283 283 286 288 290 290 291 293 294 295 294 291 288 289 291 292 293 294 295 295 294 294 294 294 294 293 291 292 293 293 291 288 286 285 286 285 284 283 284 284 283 282 281 281
284 285 286 288 290 291 292 294 295 295 294 291 289 290 291 292 293 294 295 294 294 295 295 296 296 293 292 293 294 295 294 291 289 286 285 286 286 286 285 284 283 282 281 280
285 285 285 287 289 291 293 295 295 295 295 292 290 291 291 291 291 293 294 294 293 294 294 295 295 293 292 292 292 292 292 291 290 288 285 285 286 287 287 286 286 285 284 282
283 283 283 286 288 291 293 294 295 296 296 294 292 292 292 290 290 292 294 295 295 295 295 294 293 291 290 289 290 290 289 289 289 288 285 285 286 286 287 288 288 288 287 286
283 284 284 285 289 292 293 293 294 296 296 295 293 293 292 292 291 292 293 294 295 294 294 292 291 289 288 289 289 289 288 288 287 286 284 284 285 285 285 286 287 287 286 286
284 283 284 285 288 291 292 292 292 294 294 294 293 293 293 293 292 292 292 292 292 292 290 288 288 288 288 287 287 286 286 287 288 286 282 282 285 286 285 286 286 286 286 287
284 283 284 285 286 288 289 290 291 291 292 292 293 294 294 294 294 294 293 292 290 289 287 286 286 287 287 287 287 285 284 285 285 284 283 283 284 285 284 284 286 286 286 287
283 283 284 284 285 287 288 289 289 289 290 291 292 293 293 294 295 295 294 293 289 287 285 284 284 285 285 285 285 286 284 283 284 283 283 283 283 283 283 283 283 284 284 285
281 282 284 284 285 286 287 287 287 288 289 290 292 292 293 294 296 296 296 294 289 285 284 283 283 283 284 284 285 285 284 282 283 284 283 283 283 282 282 282 283 284 284 283
280 281 282 283 284 285 285 286 287 288 290 291 292 292 293 294 295 296 297 294 289 285 283 283 282 281 282 284 285 285 283 281 281 283 284 283 282 282 282 282 284 285 285 284
279 280 280 281 283 284 283 284 287 289 291 292 292 293 294 294 295 296 296 294 289 285 283 281 281 280 281 283 284 283 281 281 281 282 283 283 283 283 283 284 285 286 285 284
278 279 279 280 282 282 283 284 286 289 291 292 293 293 293 294 294 294 294 293 290 286 283 281 282 282 283 283 282 282 283 283 283 282 282 283 284 283 282 283 286 286 285 283
276 277 277 278 280 282 283 284 285 286 288 289 291 291 292 294 294 293 292 290 288 285 284 284 284 284 284 283 282 283 284 284 285 285 283 283 283 282 282 283 285 286 284 282
Height
5635 5634 5633 5632 5631 5630 5629 5627 5626 5625 5623 5622 5620 5617 5615 5613 5611 5609 5607 5605 5603 5601 5599 5597 5596 5594 5593 5591 5590 5589 5588 5587 5586 5585 5585 5585 5585 5585 5585 5585 5585 5584 5584 5584
5629 5628 5627 5626 5626 5625 5623 5621 5619 5618 5618 5616 5614 5612 5610 5608 5605 5603 5601 5599 5597 5595 5594 5592 5590 5589 5587 5586 5584 5583 5582 5581 5580 5579 5578 5578 5578 5578 5578 5577 5576 5576 5575 5575
5623 5622 5620 5621 5621 5619 5617 5615 5613 5612 5612 5610 5608 5606 5603 5602 5600 5597 5595 5593 5591 5589 5588 5586 5585 5583 5582 5580 5578 5577 5576 5575 5574 5573 5572 5571 5571 5570 5570 5569 5568 5567 5567 5566
5616 5616 5615 5618 5615 5613 5611 5609 5607 5605 5604 5603 5601 5599 5597 5595 5593 5592 5590 5588 5586 5584 5582 5580 5579 5577 5576 5574 5572 5570 5569 5568 5567 5565 5565 5564 5563 5562 5561 5560 5560 5559 5559 5558
5610 5609 5609 5610 5609 5606 5604 5604 5602 5599 5598 5597 5595 5593 5592 5590 5587 5586 5584 5582 5580 5578 5576 5575 5573 5571 5569 5567 5566 5564 5562 5561 5559 5558 5557 5557 5556 5555 5554 5553 5552 5551 5550 5550
5605 5603 5603 5605 5603 5600 5599 5598 5596 5593 5592 5590 5589 5588 5587 5584 5581 5579 5578 5576 5574 5572 5571 5569 5567 5565 5563 5561 5559 5557 5556 5554 5553 5552 5551 5550 5549 5548 5546 5545 5544 5543 5542 5542
5599 5597 5598 5599 5596 5594 5594 5594 5590 5588 5586 5584 5582 5581 5580 5577 5575 5573 5571 5570 5568 5566 5565 5563 5561 5559 5558 5555 5553 5551 5550 5548 5547 5545 5544 5543 5542 5540 5539 5538 5536 5535 5535 5535
5593 5592 5594 5592 5590 5589 5588 5586 5584 5582 5580 5578 5576 5575 5573 5571 5569 5567 5565 5563 5562 5560 5559 5557 5556 5554 5552 5550 5548 5546 5544 5542 5541 5539 5538 5536 5534 5533 5532 5531 5530 5528 5528 5528
5588 5589 5587 5585 5583 5582 5581 5579 5578 5576 5574 5572 5570 5569 5567 5565 5563 5561 5559 5557 5556 5554 5553 5551 5550 5548 5546 5544 5542 5540 5538 5536 5535 5533 5531 5529 5528 5526 5525 5524 5523 5522 5521 5521
5582 5582 5580 5578 5577 5575 5574 5573 5571 5570 5568 5566 5564 5563 5561 5559 5557 5555 5553 5551 5549 5548 5546 5545 5543 5541 5539 5537 5536 5534 5532 5530 5528 5526 5525 5523 5521 5519 5518 5517 5516 5516 5515 5515
5575 5575 5573 5572 5570 5569 5568 5566 5565 5563 5561 5560 5558 5557 5555 5553 5551 5549 5547 5545 5543 5541 5540 5538 5537 5535 5533 5531 5530 5528 5526 5524 5522 5520 5518 5517 5515 5513 5512 5511 5511 5511 5510 5510
5569 5568 5566 5566 5564 5563 5561 5560 5558 5557 5555 5553 5552 5550 5548 5546 5544 5542 5540 5538 5537 5535 5534 5532 5530 5529 5527 5525 5524 5522 5520 5517 5516 5514 5512 5511 5510 5508 5507 5506 5505 5505 5505 5505
5562 5561 5560 5559 5558 5556 5554 5553 5551 5550 5548 5546 5545 5543 5542 5540 5538 5536 5534 5532 5530 5528 5527 5525 5524 5522 5520 5519 5517 5516 5514 5512 5510 5508 5507 5505 5504 5503 5502 5501 5500 5499 5499 5499
5555 5554 5553 5553 5551 5549 5548 5546 5544 5543 5541 5539 5538 5536 5535 5533 5531 5529 5527 5525 5523 5522 5520 5519 5517 5515 5513 5512 5510 5509 5507 5505 5504 5502 5501 5500 5499 5498 5497 5496 5495 5494 5493 5492
5549 5548 5547 5546 5544 5542 5541 5539 5537 5536 5534 5532 5530 5529 5528 5526 5524 5523 5521 5519 5517 5515 5513 5512 5510 5508 5506 5505 5503 5502 5500 5499 5497 5496 5495 5494 5493 5492 5491 5490 5489 5488 5487 5486
5541 5540 5539 5538 5537 5535 5534 5532 5530 5528 5526 5525 5523 5522 5521 5519 5518 5516 5514 5512 5510 5508 5507 5505 5503 5501 5500 5498 5496 5495 5493 5492 5491 5490 5489 5488 5487 5486 5484 5483 5483 5482 5481 5480
5534 5533 5532 5531 5530 5529 5527 5525 5523 5521 5519 5518 5517 5515 5514 5513 5511 5509 5508 5506 5504 5502 5500 5498 5496 5495 5493 5492 5490 5488 5487 5486 5484 5483 5483 5482 5481 5480 5478 5477 5476 5475 5475 5474
5526 5525 5524 5524 5523 5521 5520 5518 5517 5515 5513 5512 5510 5509 5507 5506 5504 5503 5501 5499 5497 5495 5493 5491 5489 5488 5486 5485 5483 5482 5481 5479 5479 5478 5477 5476 5475 5473 5472 5471 5470 5469 5468 5468
5519 5518 5517 5516 5515 5514 5513 5511 5510 5508 5507 5505 5504 5502 5501 5499 5497 5496 5494 5492 5490 5488 5486 5484 5482 5481 5480 5478 5477 5475 5474 5473 5472 5471 5471 5470 5469 5467 5466 5465 5464 5463 5463 5462
5512 5511 5510 5509 5508 5507 5506 5504 5503 5502 5500 5499 5497 5496 5494 5492 5490 5489 5487 5485 5483 5481 5479 5477 5476 5474 5473 5471 5470 5469 5468 5467 5466 5465 5464 5463 5462 5461 5460 5459 5458 5457 5456 5455
5504 5504 5503 5502 5501 5500 5499 5497 5496 5495 5494 5492 5490 5489 5487 5485 5483 5481 5479 5477 5475 5473 5471 5470 5468 5467 5466 5464 5463 5462 5461 5460 5459 5458 5457 5456 5455 5455 5454 5453 5452 5451 5450 5449
5497 5497 5496 5495 5494 5493 5492 5491 5489 5488 5487 5485 5483 5481 5480 5478 5475 5473 5470 5468 5467 5465 5463 5462 5461 5460 5458 5457 5456 5455 5454 5453 5452 5451 5450 5449 5448 5448 5447 5446 5445 5444 5443 5442
5490 5489 5488 5488 5487 5486 5485 5483 5482 5481 5479 5478 5476 5474 5472 5470 5467 5465 5463 5460 5458 5457 5456 5454 5453 5452 5451 5449 5448 5447 5447 5446 5445 5444 5443 5442 5441 5440 5440 5439 5438 5437 5436 5435
5482 5481 5480 5480 5479 5478 5477 5476 5475 5473 5472 5470 5468 5466 5464 5462 5459 5456 5454 5452 5450 5449 5448 5447 5445 5445 5444 5442 5441 5440 5439 5439 5438 5437 5436 5435 5435 5434 5433 5432 5431 5430 5429 5428
5473 5473 5472 5472 5471 5470 5469 5468 5467 5465 5463 5462 5460 5457 5455 5453 5451 5449 5447 5445 5443 5442 5440 5439 5438 5437 5436 5435 5434 5433 5432 5431 5431 5430 5429 5428 5427 5426 5425 5425 5424 5423 5422 5421
5465 5464 5464 5463 5462 5462 5461 5460 5458 5457 5455 5453 5451 5449 5447 5445 5443 5441 5439 5437 5436 5434 5433 5432 5431 5430 5429 5428 5427 5426 5425 5424 5423 5422 5421 5420 5420 5419 5418 5417 5416 5415 5415 5414
5456 5455 5455 5454 5453 5453 5452 5451 5450 5448 5447 5445 5443 5442 5440 5438 5436 5434 5432 5430 5429 5427 5426 5425 5424 5423 5422 5421 5420 5419 5417 5416 5415 5414 5413 5413 5412 5412 5411 5410 5409 5408 5407 5406